2018-112A (43909 NORAD) Tracking and Keplerian Element Data

This shows tracking and keplerian element data for the satellite.

Feedback or suggestion? Click here.




ElementValue
Catalog43909
Name2018-112A
Epoch Orbit280
Epoch Day16.86434209
Epoch Year2019
RAAN95.2822
Inclination50.0147
Eccentricity0.0005939
Argument of Perigee324.9562
Mean Anonmoly145.7089
Mean Motion15.15098208
Decay Rate8.48E-06
L11 43909U 18112A 19016.86434209 .00000848 00000-0 60763-4 0 9997
L22 43909 50.0147 95.2822 0005939 324.9562 145.7089 15.15098208 2802

Live tracking and technical data element details for 2018-112A (NORAD 43909). 2018-112A can be tracked NOW for your location showing map with azimuth and elevation plus other details from your city location.

Track the satellite on the map from your city or location and see movement details for azimuth, elevation, latitude, longitude, range, height, and movement on the map or in text.







IsCatalogInMostPopularTable: catalog: 43909, numindb: 11
Update: records affected: 1



GetName: 43909 2018-112A

Hit Count: updated at: Thu, 17 Jan 2019 16:16:58 GMT